Tracking 23758 objects as of 27-Oct-2021
HD Live streaming from Space Station
objects crossing your sky now

IRIDIUM 33 DEB

Track IRIDIUM 33 DEB now!
10-day predictions


NORAD ID: 34361
Int'l Code: 1997-051FD
Perigee: 482.3 km
Apogee: 506.3 km
Inclination: 86.3 °
Period: 94.4 minutes
Semi major axis: 6865 km
RCS: 0.038 m2 (small)
Launch date: September 14, 1997
Source: United States (US)
Launch site: TYURATAM MISSILE AND SPACE COMPLEX (TTMTR)

Note: This is SATELLITE DEBRIS
aabbcc
Your satellite tracking list
Your tracking list is empty




NASA's NSSDC Master Catalog

Two Line Element Set (TLE):
1 34361U 97051FD  21300.26453884  .00136687  00000-0  51770-2 0  9998
2 34361  86.3260 232.5005 0017487  76.8733 283.4464 15.26204432677024
Source of the keplerian elements: AFSPC